This demonstration page uses our WeatherBlox Daily Observations layout. Learn more.

Left ArrowRight Arrow

Hourly Observations for July 11, 2017

Temp ( °F °C ) Dew Point ( °F °C ) Humidity (%) Winds ( mph kmh ) Pressure ( in mb ) Visibility ( mi km ) Precip ( " mm )
12:53 am 00:53 Clear 81 27.2 66 18.9 61 61 SSW 8 13 29.78 1009 10 16 0.00 0.00
1:53 am 01:53 Clear 76 24.4 67 19.4 74 74 NNW 3 6 29.80 1009 10 16 0.00 0.00
2:53 am 02:53 Clear 75 23.9 71 21.7 88 88 undefined N/A 29.83 1010 10 16 0.00 0.00
3:53 am 03:53 Clear 73 22.8 69 20.6 87 87 E 9 15 29.80 1009 10 16 0.00 0.00
4:53 am 04:53 Clear 73 22.8 69 20.6 87 87 ESE 10 17 29.78 1009 10 16 0.00 0.00
5:53 am 05:53 Clear 73 22.8 69 20.6 87 87 ESE 14 22 29.78 1009 10 16 0.00 0.00
6:53 am 06:53 Sunny 74 23.3 67 19.4 79 79 ESE 10 17 29.79 1009 10 16 0.00 0.00
7:53 am 07:53 Sunny 74 23.3 66 18.9 76 76 SE 9 15 29.78 1009 10 16 0.00 0.00
8:53 am 08:53 Sunny 76 24.4 68 20 77 77 SE 5 7 29.78 1009 10 16 0.00 0.03
9:53 am 09:53 Sunny 80 26.7 70 21.1 71 71 SSE 8 13 29.78 1008 10 16 0.00 0.00
10:53 am 10:53 Sunny 82 27.8 69 20.6 65 65 S 10 17 29.77 1008 10 16 0.00 0.00
11:53 am 11:53 Sunny 87 30.6 69 20.6 55 55 S 10 17 29.76 1008 10 16 0.00 0.00
12:53 pm 12:53 Sunny 89 31.7 68 20 50 50 S 12 19 29.75 1008 7 11 0.00 0.00
1:53 pm 13:53 Sunny 92 33.3 69 20.6 47 47 S 9 15 29.74 1007 10 16 0.00 0.00
2:53 pm 14:53 Sunny 93 33.9 67 19.4 42 42 S 9 15 29.72 1006 10 16 0.00 0.00
3:53 pm 15:53 Sunny 96 35.6 66 18.9 37 37 S 9 15 29.71 1006 10 16 0.00 0.00
4:53 pm 16:53 Sunny 98 36.7 64 17.8 33 33 S 7 11 29.69 1006 10 16 0.00 0.00
5:53 pm 17:53 Sunny 98 36.7 63 17.2 32 32 SSW 5 7 29.68 1005 10 16 0.00 0.00
6:53 pm 18:53 Sunny 96 35.6 66 18.9 37 37 SE 5 7 29.67 1005 10 16 0.00 0.00
7:53 pm 19:53 Sunny 89 31.7 76 24.4 65 65 E 7 11 29.68 1005 10 16 0.00 0.00
8:53 pm 20:53 Sunny 88 31.1 74 23.3 63 63 SE 7 11 29.67 1005 10 16 0.00 0.00
9:53 pm 21:53 Clear 89 31.7 72 22.2 57 57 SSE 13 20 29.67 1005 10 16 0.00 0.00
10:53 pm 22:53 Clear 86 30 63 17.2 46 46 S 7 11 29.70 1006 10 16 0.00 0.00
11:53 pm 23:53 Clear 84 28.9 62 16.7 48 48 SSW 9 15 29.70 1006 10 16 0.00 0.00

Powered by AerisWeather